NKS137K KMCO-KFLL

Flight info

Callsign NKS137K
Flight time N/A
Altitude 27000
Route DDANY3 JIPOD CUUDA3
Aircraft A320/M-SDE3FGHIRWY/LB1

Departure

Time 2026-05-04 01:06
Airport Orlando International Airport (KMCO)

Arrival

Time N/A
Airport Fort Lauderdale Hollywood International Airport (KFLL)
Time Latitude Longitude Altitude Speed Heading
2026-05-04 00:38 28.43452 -81.31553 102 ft 0 kts 158°
2026-05-04 00:55 28.43453 -81.31553 102 ft 2 kts 158°
2026-05-04 00:55 28.43475 -81.31566 102 ft 4 kts 146°
2026-05-04 00:55 28.43498 -81.31583 102 ft 4 kts 150°
2026-05-04 00:55 28.43518 -81.31594 100 ft 4 kts 152°
2026-05-04 00:56 28.43539 -81.31611 100 ft 4 kts 120°
2026-05-04 00:56 28.43544 -81.31637 100 ft 4 kts 65°
2026-05-04 00:56 28.43528 -81.31657 100 ft 3 kts 16°
2026-05-04 00:56 28.43523 -81.31658 102 ft 0 kts 11°
2026-05-04 00:59 28.43529 -81.31657 100 ft 3 kts 11°
2026-05-04 00:59 28.43578 -81.31646 102 ft 10 kts 11°
2026-05-04 01:00 28.43664 -81.31626 102 ft 16 kts 12°
2026-05-04 01:00 28.43761 -81.31655 103 ft 15 kts 308°
2026-05-04 01:00 28.43833 -81.31699 106 ft 7 kts 355°
2026-05-04 01:00 28.43899 -81.31679 104 ft 14 kts 28°
2026-05-04 01:01 28.43923 -81.31589 103 ft 14 kts 88°
2026-05-04 01:01 28.43926 -81.31452 102 ft 20 kts 88°
2026-05-04 01:01 28.43932 -81.31273 107 ft 22 kts 88°
2026-05-04 01:01 28.43939 -81.31103 117 ft 22 kts 85°
2026-05-04 01:02 28.43994 -81.30967 101 ft 6 kts 71°
2026-05-04 01:02 28.43895 -81.30493 100 ft 8 kts 63°
2026-05-04 01:02 28.43914 -81.30346 100 ft 22 kts 83°
2026-05-04 01:02 28.43913 -81.30178 102 ft 21 kts 83°
2026-05-04 01:03 28.43884 -81.29997 104 ft 26 kts 107°
2026-05-04 01:03 28.43760 -81.29823 104 ft 31 kts 153°
2026-05-04 01:03 28.43536 -81.29805 104 ft 35 kts 179°
2026-05-04 01:03 28.43274 -81.29799 104 ft 40 kts 179°
2026-05-04 01:04 28.42982 -81.29796 103 ft 44 kts 180°
2026-05-04 01:04 28.42663 -81.29791 103 ft 48 kts 178°
2026-05-04 01:04 28.42432 -81.29781 103 ft 50 kts 177°
2026-05-04 01:04 28.42144 -81.29778 102 ft 52 kts 179°
2026-05-04 01:05 28.41818 -81.29791 102 ft 43 kts 177°
2026-05-04 01:05 28.41552 -81.29776 103 ft 37 kts 178°
2026-05-04 01:05 28.41423 -81.29682 102 ft 16 kts 77°
2026-05-04 01:05 28.41492 -81.29622 105 ft 23 kts 34°
2026-05-04 01:06 28.41609 -81.29568 106 ft 12 kts
2026-05-04 01:06 28.41935 -81.29567 103 ft 93 kts 360°
2026-05-04 01:06 28.42834 -81.29576 129 ft 159 kts
2026-05-04 01:06 28.43975 -81.29609 999 ft 165 kts
2026-05-04 01:07 28.44297 -81.29627 1266 ft 165 kts